Location: Casco Millpond
(44.5581°N, 87.6111°W)
Time: 09:48:10
(UTC+00:00)

NOSS 8 (H) - Pass Details

Date: 16 January 2026
Orbit: 355 x 1517 km, 63.3° (Epoch: 10 February)

Event Time Altitude Azimuth Distance (km) Brightness Sun altitude
Exits shadow 12:13:02 19° 315° (NW) 1,009 5.6 -12.3°
Maximum altitude 12:15:05 70° 234° (SW) 449 4.2 -11.9°
Drops below altitude 10° 12:18:41 10° 150° (SSE) 1,683 8.0 -11.3°
Sets 12:21:07 0° 149° (SSE) 2,728 9.2 -10.9°
